{"data":{"norad_id":50849,"epoch":"2026-05-24T20:16:28.067520Z","epoch_age_seconds":81590,"freshness":"FRESH","line1":"1 50849U 22001AY  26144.84476930 -.00000078  00000+0  13203-4 0  9997","line2":"2 50849  53.2125 197.2486 0001148  97.0021 263.1101 15.08835485241767","mean_motion":15.08835485,"eccentricity":0.0001148,"inclination_deg":53.2125,"raan_deg":197.2486,"arg_perigee_deg":97.0021,"mean_anomaly_deg":263.1101,"bstar":1.3203e-5,"rev_number":24176,"period_min":95.437840262618,"perigee_km":538.9630152943,"apogee_km":540.55136380022,"semimajor_km":6917.8941895473,"source":"CELESTRAK","updated_at":"2026-05-25T13:38:16.883535Z"}}